#timestamp,LO_Frequency,Hit,StdDev 
1567839615.2,286046999.9,P
1567839635.0,286047000.4,N
1567839635.9,286047000.4,N
1567839655.8,286047000.0,N
1567839675.6,286047000.6,N
1567839695.4,286047000.9,N
1567839715.3,286047000.4,N
1567839735.1,286047001.0,N
1567839755.9,286047002.5,Y
1567839775.7,286047000.3,P
1567839795.5,286047000.9,P
1567839815.4,286046998.1,P
1567839835.2,286047001.1,N
1567839855.1,286046998.4,N
1567839856.0,286046998.4,N
1567839875.8,286047000.9,N
1567839895.6,286046998.4,N
1567839915.5,286046998.3,N
1567839935.3,286046998.5,N
1567839955.2,286046999.0,N
1567839975.9,286046998.4,N
1567839995.7,286046998.2,N
1567840015.6,286047000.5,N
1567840035.4,286047000.6,N
1567840055.2,286047000.1,N
1567840075.1,286046999.9,N
1567840076.0,286046999.9,N
1567840095.8,286047000.7,N
1567840145.7,286046997.0,E
1567840155.6,286046998.2,N
1567840175.5,286047002.1,P
1567840195.3,286047001.5,N
1567840215.1,286047001.7,N
1567840235.9,286047003.2,N
1567840255.7,286047003.4,N
1567840275.6,286047003.6,N
1567840295.4,286047005.1,N
1567840315.2,286047005.3,N
1567840335.1,286047005.4,N
1567840336.0,286047005.4,N
1567840355.8,286047005.4,N
1567840375.6,286047004.7,N
1567840395.5,286047004.7,N
1567840415.0,286047005.7,N
1567840415.9,286047005.7,N
1567840435.8,286047005.9,N
1567840455.6,286047005.6,N
1567840475.5,286047005.4,N
1567840495.3,286047005.2,N
1567840515.1,286047005.1,N
1567840535.9,286047005.0,N
1567840555.7,286047005.2,N
1567840575.5,286047005.5,N
1567840595.4,286047005.7,Y
1567840615.2,286047000.5,P
1567840635.1,286047000.2,N
1567840636.0,286047000.2,N
1567840655.8,286047000.0,N
1567840675.6,286046999.9,N
1567840695.5,286047000.8,N
1567840715.3,286046998.1,N
1567840735.2,286047001.2,N
1567840755.9,286046998.6,N
1567840775.7,286046998.9,N
1567840795.6,286046998.8,N
1567840815.4,286046998.8,N
1567840835.2,286046999.4,N
1567840855.1,286046999.3,N
1567840856.0,286046999.3,N
1567840875.8,286046999.6,N
1567840895.7,286046999.3,N
1567840915.5,286046999.1,N
1567840935.3,286046999.2,N
1567840955.2,286046999.4,N
1567840975.0,286046999.0,N
1567840975.9,286046999.0,N
1567840995.8,286046998.8,N
1567841015.6,286046999.5,N
1567841065.5,286046997.0,E
1567841075.4,286046998.7,N
1567841095.2,286047000.9,P
1567841115.1,286047000.2,N
1567841116.0,286047000.2,N
1567841135.8,286046999.8,N
1567841155.6,286047002.8,Y
1567841175.5,286047002.7,P
1567841195.3,286047000.1,N
1567841215.2,286046999.7,N
1567841235.9,286047000.5,N
1567841255.7,286047000.4,N
1567841275.6,286047000.3,N
1567841295.4,286046998.1,N
1567841315.3,286047001.0,N
1567841335.1,286046998.3,N
1567841355.8,286046998.1,N
1567841375.7,286046998.9,N
1567841395.5,286046998.2,N
1567841415.4,286046998.1,N
1567841435.2,286046998.3,N
1567841455.0,286047000.0,N
1567841455.9,286047000.0,N
1567841475.8,286047000.1,N
1567841495.6,286047000.9,N
1567841515.5,286047001.2,N
1567841535.3,286047000.3,N
1567841555.1,286047000.4,N
1567841575.9,286047000.5,N
1567841595.7,286046998.6,N
1567841615.5,286047001.1,N
1567841635.4,286047000.4,N
1567841655.2,286047000.7,N
1567841675.1,286046998.1,N
1567841676.0,286046998.1,N
1567841695.8,286047000.9,N
1567841715.7,286047000.9,N
1567841735.5,286047000.8,N
1567841755.3,286046998.2,N
1567841775.2,286047000.9,N
1567841795.9,286047000.7,N
1567841815.7,286046998.7,N
1567841835.6,286046999.2,N
1567841855.4,286046998.5,N
1567841875.3,286046998.6,N
1567841895.1,286046999.4,N
1567841896.0,286046999.4,N
1567841915.8,286046999.5,N
1567841935.7,286046999.3,N
1567841955.5,286047001.2,N
1567841975.3,286046998.4,N
1567841995.2,286046998.7,N
1567842015.0,286046998.9,N
1567842015.9,286046998.9,N
1567842035.8,286047001.2,N
1567842055.6,286047001.2,N
1567842075.4,286046998.6,N
1567842095.3,286046998.3,N
1567842115.1,286046998.8,N
1567842135.9,286046999.5,N
1567842155.7,286046998.3,N
1567842175.5,286046998.8,N
1567842195.4,286046998.5,N
1567842215.2,286046998.6,N
1567842235.0,286046996.7,Y
1567842236.0,286046996.7,P
1567842255.8,286046998.7,N
1567842275.6,286046998.4,N
1567842295.5,286046998.7,N
1567842315.3,286046999.0,N
1567842335.1,286047000.6,N
1567842355.9,286047000.9,N
1567842375.7,286047000.0,N
1567842395.6,286046999.9,N
1567842415.4,286046999.8,N
1567842435.2,286046999.8,N
1567842455.1,286047000.2,N
1567842456.0,286047000.2,N
1567842475.8,286047000.8,N
1567842495.7,286047002.4,N
1567842515.5,286047002.4,N
1567842535.3,286047000.0,N
1567842555.2,286046999.7,N
1567842575.9,286047000.3,N
1567842595.7,286046999.8,N
1567842615.6,286047002.7,N
1567842635.4,286047002.1,N
1567842655.3,286047000.6,N
1567842675.1,286046999.9,N
1567842676.0,286046999.9,N
1567842695.8,286046999.7,N
1567842715.7,286047000.6,N
1567842735.5,286046999.7,N
1567842755.3,286046999.8,N
1567842775.2,286046999.7,N
1567842795.0,286047002.1,N
1567842795.9,286047002.1,N
1567842815.8,286047002.3,N
1567842835.6,286047001.9,N
1567842855.4,286047001.7,N
1567842875.3,286047001.5,N
1567842895.1,286047001.7,N
1567842915.8,286047001.9,N
1567842935.7,286047001.7,N
1567842955.5,286047001.7,N
1567842975.4,286047002.1,N
1567842995.2,286047002.0,N
1567843015.0,286047002.2,N
1567843015.9,286047002.2,N
1567843035.8,286047002.0,N
1567843055.6,286047004.1,Y
1567843075.5,286046999.9,P
1567843095.3,286047000.4,N
1567843115.1,286047000.5,N
1567843135.9,286047000.3,N
1567843155.7,286047000.2,N
1567843175.5,286046999.9,N
1567843195.4,286046999.8,N
